Flag Weather past 2 weeks in Adelaide, South Australia, Australia

Now
64 °F

Partly sunny.


Feels Like: 64 °F
Forecast: 51 / 64 °F
Wind: 18 mph from Southwest

Location: Adelaide Airport

Current Time: Oct 31, 2014 at 7:43:24 PM

Latest Report: Oct 31, 2014 at 7:00 PM


Visibility: N/A

Pressure: 29.59 "Hg

Humidity: 83%

Dew point: 59 °F

Location of AdelaideLocation

Historic Weather in Adelaide — Graph

°F

Adelaide temperature yesterday

Maximum temperature yesterday: 70 °F (at 2:30 PM)
Minimum temperature yesterday: 48 °F (at 5:30 AM)
Average temperature yesterday: 61 °F

Past Weeks' High & Low Weather Summary

 TemperatureHumidityPressure
High99 °F (Oct 21, 1:00 PM)100% (Oct 24, 2:30 AM)30.27 "Hg (Oct 24, 2:30 AM)
Low45 °F (Oct 17, 5:30 AM)5% (Oct 18, 5:30 PM)29.53 "Hg (Oct 31, 3:00 PM)
Average68 °F54%30.02 "Hg
* Reported Oct 16 6:30 PM — Oct 31 6:30 PM, Adelaide, Weather by CustomWeather, © 2014

Note: Actual official high and low records may vary slightly from our data, if they occured in-between our weather recording intervals... More about our weather records

Advertising

Adelaide weather history for previous 24 hours

 ConditionsComfort  
Time TempWeatherWind HumidityBarometerVisibility
6:30 PM
Oct 31
66 °FPartly sunny.18 mph73%29.59 "HgN/A
6:00 PM72 °FPartly sunny.10 mph53%29.56 "HgN/A
5:30 PM72 °FSunny.14 mph50%29.53 "Hg10 mi
5:00 PM73 °FSunny.16 mph47%29.53 "Hg10 mi
4:30 PM73 °FSunny.17 mph44%29.53 "Hg10 mi
4:00 PM73 °FSunny.22 mph38%29.56 "Hg10 mi
3:30 PM77 °FSunny.16 mph39%29.53 "Hg10 mi
3:00 PM81 °FSunny.12 mph32%29.53 "Hg10 mi
2:30 PM82 °FSunny.10 mph32%29.56 "Hg10 mi
2:00 PM82 °FSunny.17 mph30%29.56 "Hg10 mi
1:30 PM86 °FSunny.20 mph25%29.56 "Hg10 mi
1:00 PM91 °FSunny.24 mph14%29.56 "Hg10 mi
12:30 PM91 °FSunny.22 mph10%29.56 "Hg10 mi
12:00 PM93 °FSunny.17 mph8%29.59 "Hg10 mi
11:30 AM91 °FSunny.17 mph9%29.59 "Hg10 mi
11:00 AM90 °FSunny.20 mph11%29.62 "Hg10 mi
10:30 AM88 °FSunny.20 mph12%29.62 "Hg10 mi
10:00 AM84 °FSunny.18 mph13%29.62 "Hg10 mi
9:30 AM84 °FSunny.18 mph15%29.65 "Hg10 mi
9:00 AM81 °FSunny.18 mph16%29.65 "Hg10 mi
8:30 AM81 °FSunny.13 mph18%29.65 "Hg10 mi
8:00 AM77 °FSunny.14 mph22%29.68 "Hg10 mi
7:30 AM72 °FSunny.12 mph29%29.68 "Hg10 mi
7:00 AM68 °FSunny.13 mph33%29.68 "Hg10 mi
6:30 AM64 °FSunny.13 mph43%29.68 "Hg10 mi
6:00 AM64 °FSunny.10 mph43%29.68 "Hg10 mi
5:30 AM55 °FClear.8 mph82%29.71 "Hg10 mi
5:00 AM55 °FClear.3 mph82%29.71 "Hg10 mi
4:30 AM55 °FClear.5 mph82%29.74 "Hg10 mi
4:00 AM57 °FClear.No wind82%29.74 "Hg10 mi
3:30 AM59 °FClear.6 mph77%29.74 "Hg10 mi
3:00 AM57 °FClear.3 mph82%29.74 "Hg10 mi
2:30 AM59 °FClear.5 mph82%29.77 "Hg10 mi
2:00 AM59 °FClear.5 mph77%29.77 "Hg10 mi
1:30 AM59 °FClear.No wind77%29.80 "Hg10 mi
1:00 AM61 °FClear.No wind72%29.83 "Hg10 mi
12:30 AM63 °FClear.6 mph73%29.83 "Hg10 mi
12:00 AM63 °FClear.3 mph68%29.83 "Hg10 mi
11:30 PM
Oct 30
63 °FClear.5 mph68%29.83 "Hg10 mi
11:00 PM64 °FClear.5 mph64%29.83 "Hg10 mi
10:30 PM63 °FClear.6 mph64%29.86 "Hg10 mi
10:00 PM63 °FClear.No wind73%29.86 "Hg10 mi
9:30 PM63 °FClear.1 mph68%29.86 "Hg10 mi
9:00 PM64 °FClear.3 mph64%29.86 "Hg10 mi
8:30 PM64 °FClear.No wind64%29.86 "Hg10 mi
8:00 PM64 °FClear.5 mph64%29.86 "Hg10 mi
7:30 PM66 °FClear.6 mph56%29.86 "Hg10 mi
7:00 PM68 °FSunny.6 mph53%29.86 "Hg10 mi
Weather by CustomWeather, © 2014

See weather overviewHow to use our weather pages